Date String (YYYY-MM-DD hh:mm:ss) UTC,Instrument flags,Ambient pressure (hPa),Sample flow (lpm),Bypass flow (lpm),Sample temperature (°C),Ambient temperature (°C),ASC tube jacket temperature (°C),LED temperature (°C),Box temperature (°C),Sample RH (%),Span deviation,Mass concentration (μg/m³),Mass concentration (μg/m³),Mass concentration (μg/m³)
DateTimeUTC,F1_M11,P_M11,Q1_M11,Q2_M11,T1_M11,T2_M11,T3_M11,T4_M11,T5_M11,U1_M11,ZSPAN_M11,X0_M11,X2_M11,X1_M11
2022-07-21 08:00:00,,0828.3,4.98,0.00,29.7,28.5,00.0,38.4,31.6,27.5,0000.0,0016.48,0006.39,0004.54
2022-07-21 08:01:00,,0828.2,5.00,0.00,29.7,28.6,00.0,38.5,31.7,27.8,0000.0,0016.58,0006.42,0004.57
2022-07-21 08:02:00,,0828.3,5.01,0.00,29.7,28.7,00.0,38.5,31.7,28.2,0000.0,0016.41,0006.47,0004.62
2022-07-21 08:03:00,,0828.3,4.99,0.00,29.8,28.7,00.0,38.5,31.7,28.3,0000.0,0016.21,0006.44,0004.66
2022-07-21 08:04:00,,0828.2,5.00,0.00,29.8,28.8,00.0,38.5,31.7,28.3,0000.0,0015.88,0006.44,0004.70
2022-07-21 08:05:00,,0828.3,5.00,0.00,29.8,28.8,00.0,38.5,31.8,28.2,0000.0,0015.63,0006.42,0004.73
2022-07-21 08:06:00,,0828.3,5.00,0.00,29.9,28.6,00.0,38.5,31.8,28.1,0000.0,0015.85,0006.46,0004.76
2022-07-21 08:07:00,,0828.3,5.00,0.00,29.8,27.8,00.0,38.5,31.7,28.2,0000.0,0017.16,0006.48,0004.78
2022-07-21 08:08:00,,0828.3,5.00,0.00,29.8,27.5,00.0,38.4,31.6,27.8,0000.0,0016.80,0006.53,0004.80
2022-07-21 08:09:00,,0828.3,4.99,0.00,29.7,27.4,00.0,38.4,31.5,27.7,0000.0,0016.14,0006.53,0004.80
2022-07-21 08:10:00,,0828.4,4.99,0.00,29.7,27.5,00.0,38.4,31.4,27.9,0000.0,0015.85,0006.55,0004.79
2022-07-21 08:11:00,,0828.4,5.01,0.00,29.6,27.6,00.0,38.4,31.4,28.3,0000.0,0015.95,0006.59,0004.81
2022-07-21 08:12:00,,0828.4,5.00,0.00,29.6,27.8,00.0,38.4,31.4,28.4,0000.0,0015.80,0006.58,0004.83
2022-07-21 08:13:00,,0828.5,5.00,0.00,29.6,27.9,00.0,38.4,31.5,28.6,0000.0,0015.56,0006.56,0004.84
2022-07-21 08:14:00,,0828.5,5.01,0.00,29.6,28.0,00.0,38.4,31.5,29.6,0000.0,0015.88,0006.56,0004.84
2022-07-21 08:15:00,,0828.5,4.99,0.00,29.6,28.1,00.0,38.4,31.5,30.0,0000.0,0016.28,0006.52,0004.85
2022-07-21 08:16:00,,0828.5,5.00,0.00,29.6,28.3,00.0,38.4,31.5,30.0,0000.0,0016.17,0006.49,0004.86
2022-07-21 08:17:00,,0828.5,5.00,0.00,29.7,28.3,00.0,38.4,31.6,29.8,0000.0,0016.28,0006.48,0004.87
2022-07-21 08:18:00,,0828.5,5.01,0.00,29.7,28.4,00.0,38.5,31.6,30.0,0000.0,0015.02,0006.48,0004.90
2022-07-21 08:19:00,,0828.5,4.99,0.00,29.7,28.5,00.0,38.5,31.7,30.4,0000.0,0014.86,0006.49,0004.92
2022-07-21 08:20:00,,0828.5,5.01,0.00,29.7,28.6,00.0,38.5,31.7,30.0,0000.0,0015.37,0006.57,0004.96
2022-07-21 08:21:00,,0828.4,5.00,0.00,29.8,28.7,00.0,38.5,31.7,29.8,0000.0,0016.32,0006.62,0004.99
2022-07-21 08:22:00,,0828.4,5.00,0.00,29.8,28.7,00.0,38.5,31.8,30.3,0000.0,0016.20,0006.63,0005.01
2022-07-21 08:23:00,,0828.4,4.99,0.00,29.8,28.8,00.0,38.5,31.8,30.2,0000.0,0016.43,0006.62,0005.03
2022-07-21 08:24:00,,0828.3,5.00,0.00,29.8,28.8,00.0,38.6,31.8,30.1,0000.0,0016.59,0006.67,0005.04
2022-07-21 08:25:00,,0828.3,4.99,0.00,29.9,28.3,00.0,38.5,31.8,30.4,0000.0,0017.00,0006.72,0005.06
2022-07-21 08:26:00,,0828.3,5.01,0.00,29.8,27.7,00.0,38.5,31.7,30.6,0000.0,0016.95,0006.83,0005.08
2022-07-21 08:27:00,,0828.3,5.00,0.00,29.8,27.4,00.0,38.5,31.6,30.6,0000.0,0017.77,0006.93,0005.10
2022-07-21 08:28:00,,0828.2,5.00,0.00,29.7,27.4,00.0,38.5,31.5,30.7,0000.0,0017.78,0006.93,0005.11
2022-07-21 08:29:00,,0828.2,5.00,0.00,29.7,27.5,00.0,38.4,31.4,30.8,0000.0,0017.68,0006.91,0005.11
2022-07-21 08:30:00,,0828.2,5.00,0.00,29.6,27.6,00.0,38.4,31.4,30.7,0000.0,0017.65,0006.92,0005.12
2022-07-21 08:31:00,,0828.2,5.00,0.00,29.6,27.8,00.0,38.4,31.4,30.6,0000.0,0017.70,0006.91,0005.11
2022-07-21 08:32:00,,0828.3,5.00,0.00,29.6,27.9,00.0,38.4,31.5,30.3,0000.0,0017.34,0006.98,0005.11
2022-07-21 08:33:00,,0828.2,5.00,0.00,29.6,28.0,00.0,38.4,31.5,30.5,0000.0,0017.23,0007.04,0005.10
2022-07-21 08:34:00,,0828.2,5.02,0.00,29.6,28.1,00.0,38.4,31.5,30.4,0000.0,0017.04,0007.08,0005.11
2022-07-21 08:35:00,,0828.2,4.99,0.00,29.6,28.2,00.0,38.4,31.6,30.1,0000.0,0017.69,0007.09,0005.11
2022-07-21 08:36:00,,0828.3,5.01,0.00,29.7,28.3,00.0,38.5,31.6,30.1,0000.0,0017.39,0007.07,0005.11
2022-07-21 08:37:00,,0828.3,5.00,0.00,29.7,28.4,00.0,38.5,31.6,29.8,0000.0,0016.78,0006.99,0005.11
2022-07-21 08:38:00,,0828.3,4.99,0.00,29.7,28.5,00.0,38.5,31.6,30.0,0000.0,0016.21,0006.92,0005.08
2022-07-21 08:39:00,,0828.4,5.00,0.00,29.7,28.5,00.0,38.5,31.7,29.9,0000.0,0016.02,0006.95,0005.07
2022-07-21 08:40:00,,0828.5,5.00,0.00,29.7,28.6,00.0,38.5,31.7,29.7,0000.0,0016.21,0006.99,0005.08
2022-07-21 08:41:00,,0828.5,5.00,0.00,29.8,28.7,00.0,38.5,31.7,29.8,0000.0,0016.71,0007.01,0005.07
2022-07-21 08:42:00,,0828.5,5.00,0.00,29.8,28.7,00.0,38.5,31.7,29.5,0000.0,0017.10,0007.05,0005.07
2022-07-21 08:43:00,,0828.5,5.01,0.00,29.8,28.8,00.0,38.6,31.8,28.9,0000.0,0016.66,0006.97,0005.07
2022-07-21 08:44:00,,0828.5,5.00,0.00,29.8,28.4,00.0,38.5,31.7,28.7,0000.0,0016.67,0006.98,0005.06
2022-07-21 08:45:00,,0828.5,4.99,0.00,29.8,27.6,00.0,38.5,31.7,28.0,0000.0,0017.51,0006.98,0005.03
2022-07-21 08:46:00,,0828.5,5.02,0.00,29.8,27.3,00.0,38.4,31.6,27.6,0000.0,0016.96,0006.95,0005.02
2022-07-21 08:47:00,,0828.5,4.99,0.00,29.7,27.3,00.0,38.4,31.4,27.6,0000.0,0017.33,0006.91,0005.01
2022-07-21 08:48:00,,0828.4,5.00,0.00,29.6,27.4,00.0,38.4,31.4,27.3,0000.0,0017.66,0006.94,0004.99
2022-07-21 08:49:00,,0828.4,5.01,0.00,29.6,27.5,00.0,38.4,31.4,28.0,0000.0,0018.06,0006.89,0004.97
2022-07-21 08:50:00,,0828.3,5.00,0.00,29.6,27.6,00.0,38.4,31.4,28.0,0000.0,0018.22,0006.86,0004.96
2022-07-21 08:51:00,,0828.3,5.00,0.00,29.6,27.8,00.0,38.4,31.4,28.2,0000.0,0017.99,0006.82,0004.94
2022-07-21 08:52:00,,0828.3,5.00,0.00,29.6,27.9,00.0,38.4,31.4,28.0,0000.0,0018.04,0006.78,0004.92
2022-07-21 08:53:00,,0828.3,5.00,0.00,29.6,28.0,00.0,38.4,31.4,27.0,0000.0,0017.39,0006.72,0004.88
2022-07-21 08:54:00,,0828.3,5.00,0.00,29.6,28.1,00.0,38.4,31.5,27.2,0000.0,0017.15,0006.67,0004.84
2022-07-21 08:55:00,,0828.3,5.00,0.00,29.6,28.2,00.0,38.4,31.5,27.4,0000.0,0016.78,0006.54,0004.82
2022-07-21 08:56:00,,0828.4,5.01,0.00,29.6,28.3,00.0,38.4,31.5,27.2,0000.0,0015.44,0006.43,0004.80
2022-07-21 08:57:00,,0828.4,4.99,0.00,29.6,28.3,00.0,38.4,31.6,26.9,0000.0,0014.73,0006.40,0004.78
2022-07-21 08:58:00,,0828.5,5.00,0.00,29.7,28.4,00.0,38.4,31.6,27.1,0000.0,0014.20,0006.42,0004.77
2022-07-21 08:59:00,,0828.5,5.00,0.00,29.7,28.5,00.0,38.4,31.6,27.0,0000.0,0013.61,0006.39,0004.76
